• Join FlightAware (Why Join?)
  • Login
  • US Flag 
08:31AM EDT


 

Airport Tracker/Info


-or-


 

Live Flight TrackerFlight Track Log ✈ AMF1965 ✈ 05-Jul-2013 ✈ KHRI - KPDX

Flight Track Log - Related Links

Times and Time Zones

All times are in EDT time to prevent confusion due to time zone crossing. See the AMF1965 flight status page for this flight to view local times or setup timezone preferences in your user account.

Time Position Orientation Groundspeed Altitude Reporting Facility
EDT Latitude Longitude Course Direction KTS MPH feet Rate Location/Type
08:16PM 45.9178 -119.6758 260° West 225 259 10,000  Level Seattle Center
08:17PM 45.9069 -119.7644 260° West 226 260 11,100 1,080 Climbing Seattle Center
08:18PM 45.8947 -119.8689 260° West 222 255 12,300 1,080 Climbing Seattle Center
08:19PM 45.8886 -119.9536 264° West 215 247 13,400 960 Climbing Seattle Center
08:20PM 45.8811 -120.0375 263° West 215 247 14,300 540 Climbing Seattle Center
08:21PM 45.8694 -120.1256 259° West 224 258 14,500 60 Climbing Seattle Center
08:22PM 45.8606 -120.2175 262° West 233 268 14,500  Level Seattle Center
08:23PM 45.8489 -120.3114 260° West 241 277 14,500  Level Seattle Center
08:24PM 45.8392 -120.4033 261° West 235 270 14,500  Level Seattle Center
08:25PM 45.8281 -120.4964 260° West 237 273 14,500  Level Seattle Center
08:26PM 45.8161 -120.5861 259° West 232 267 14,500  Level Seattle Center
08:27PM 45.8056 -120.6778 261° West 234 269 14,500  Level Seattle Center
08:28PM 45.7942 -120.7689 260° West 234 269 14,500  Level Seattle Center
08:29PM 45.7836 -120.8819 262° West 239 275 14,500  Level Seattle Center
08:30PM 45.7761 -120.9739 263° West 236 272 14,500  Level Seattle Center
08:31PM 45.7661 -121.0667 261° West 237 273 14,500  Level Seattle Center
08:32PM 45.7592 -121.1603 264° West 237 273 14,500 -60 Level Seattle Center
08:33PM 45.7519 -121.2522 264° West 236 272 14,400 -600 Descending Seattle Center
08:34PM 45.7336 -121.3511 255° West 256 295 13,300 -1,260 Descending Seattle Center
08:35PM 45.7133 -121.4561 255° West 273 314 11,900 -1,380 Descending Seattle Center
08:36PM 45.7000 -121.5225 254° West 279 321 11,200 -1,440 Descending Seattle Center
08:37PM 45.6764 -121.6381 254° West 285 328 9,700 -1,260 Descending Seattle Center
08:38PM 45.6531 -121.7442 253° West 280 322 8,700 -960 Descending Seattle Center
08:38PM 45.6450 -121.7769 251° West 281 323 8,300 -1,380 Descending Seattle Center
08:39PM 45.6311 -121.8467 254° West 269 310 7,300 -1,320 Descending Seattle Center
08:39PM 45.6217 -121.8786 247° West 273 314 7,000 -660 Descending Seattle Center
08:40PM 45.6014 -121.9550 249° West 273 314 6,600 -720 Descending Seattle Center
08:41PM 45.5753 -122.0494 248° West 267 307 5,900 -720 Descending Seattle Center
08:41PM 45.5669 -122.0883 253° West 272 313 5,600 -840 Descending Seattle Center
08:42PM 45.5497 -122.1561 250° West 270 311 5,100 -840 Descending Seattle Center
08:42PM 45.5467 -122.1894 263° West 267 307 4,800 -840 Descending Seattle Center
08:43PM 45.5331 -122.2556 254° West 264 304 4,300 -1,020 Descending Seattle Center
08:43PM 45.5317 -122.2911 267° West 263 303 3,800 -1,260 Descending Seattle Center
08:44PM 45.5175 -122.3700 256° West 252 290 2,800 -1,200 Descending Seattle Center
08:45PM 45.5261 -122.4436 280° West 213 245 2,000 -660 Descending Seattle Center
08:45PM 45.5356 -122.4636 304° West 221 254 2,000 -600 Level Seattle Center
08:46PM 45.5489 -122.5022 296° West 120 138 1,400 -840 Descending Seattle Center
08:47PM 45.5628 -122.5397 298° West 128 147 800 -540 Descending Seattle Center
08:47PM 45.5731 -122.5606 305° West 152 175 700 -240 Descending Seattle Center
08:49PM 45.5833 -122.5833 270° West  Level FlightAware Approximate
08:56PM 45.5887 -122.5969 270° West  Level Estimated
08:57PM 45.5887 -122.5969 270° West  Level Estimated
08:58PM 45.5887 -122.5969 270° West  Level Estimated
08:59PM 45.5887 -122.5969 270° West  Level Estimated
09:00PM 45.5887 -122.5969 270° West  Level Estimated
09:01PM 45.5887 -122.5969 270° West  Level Estimated
09:02PM 45.5887 -122.5969 270° West  Level Estimated
09:03PM 45.5887 -122.5969 270° West  Level Estimated
09:04PM 45.5887 -122.5969 270° West  Level Estimated